Time,TemperatureF,DewpointF,PressureIn,WindDirection,WindDirectionDegrees,WindSpeedMPH,WindSpeedGustMPH,Humidity,HourlyPrecipIn,Conditions,Clouds,dailyrainin,SoftwareType,DateUTC
2013-04-16 00:00:00,22.0,15.0,-100.00,SSE,154,40.0,69.0,72,-99.99,,,-99.99,,2013-04-16 06:00:00,
2013-04-16 00:42:00,22.0,15.0,-100.00,SSE,154,40.0,69.0,72,-99.99,,,-99.99,,2013-04-16 06:42:00,
2013-04-16 00:52:00,22.0,15.0,-100.00,SSE,154,40.0,69.0,72,-99.99,,,-99.99,,2013-04-16 06:52:00,
2013-04-16 01:00:00,20.0,13.0,-100.00,SSE,152,39.0,68.0,73,-99.99,,,-99.99,,2013-04-16 07:00:00,
2013-04-16 01:42:00,20.0,13.0,-100.00,SSE,152,39.0,68.0,73,-99.99,,,-99.99,,2013-04-16 07:42:00,
2013-04-16 01:53:00,20.0,13.0,-100.00,SSE,152,39.0,68.0,73,-99.99,,,-99.99,,2013-04-16 07:53:00,
2013-04-16 02:00:00,19.0,14.0,-100.00,SSE,148,37.0,64.0,81,-99.99,,,-99.99,,2013-04-16 08:00:00,
2013-04-16 02:42:00,19.0,14.0,-100.00,SSE,148,37.0,64.0,81,-99.99,,,-99.99,,2013-04-16 08:42:00,
2013-04-16 02:52:00,19.0,14.0,-100.00,SSE,148,37.0,64.0,81,-99.99,,,-99.99,,2013-04-16 08:52:00,
2013-04-16 03:00:00,18.0,12.0,-100.00,SSE,159,42.0,72.0,78,-99.99,,,-99.99,,2013-04-16 09:00:00,
2013-04-16 03:43:00,18.0,12.0,-100.00,SSE,159,42.0,72.0,78,-99.99,,,-99.99,,2013-04-16 09:43:00,
2013-04-16 03:53:00,18.0,12.0,-100.00,SSE,159,42.0,72.0,78,-99.99,,,-99.99,,2013-04-16 09:53:00,
2013-04-16 04:00:00,17.0,12.0,-100.00,SSE,154,40.0,74.0,81,-99.99,,,-99.99,,2013-04-16 10:00:00,
2013-04-16 04:43:00,17.0,12.0,-100.00,SSE,154,40.0,74.0,81,-99.99,,,-99.99,,2013-04-16 10:43:00,
2013-04-16 04:53:00,17.0,12.0,-100.00,SSE,154,40.0,74.0,81,-99.99,,,-99.99,,2013-04-16 10:53:00,
2013-04-16 05:00:00,16.0,13.0,-100.00,SSE,155,38.0,71.0,85,-99.99,,,-99.99,,2013-04-16 11:00:00,
2013-04-16 05:42:00,16.0,13.0,-100.00,SSE,155,38.0,71.0,85,-99.99,,,-99.99,,2013-04-16 11:42:00,
2013-04-16 05:52:00,16.0,13.0,-100.00,SSE,155,38.0,71.0,85,-99.99,,,-99.99,,2013-04-16 11:52:00,
2013-04-16 06:00:00,16.0,12.0,-100.00,SSE,162,42.0,72.0,82,-99.99,,,-99.99,,2013-04-16 12:00:00,
2013-04-16 06:42:00,16.0,12.0,-100.00,SSE,162,42.0,72.0,82,-99.99,,,-99.99,,2013-04-16 12:42:00,
2013-04-16 06:52:00,16.0,12.0,-100.00,SSE,162,42.0,72.0,82,-99.99,,,-99.99,,2013-04-16 12:52:00,
2013-04-16 07:00:00,15.0,11.0,-100.00,SSE,152,39.0,66.0,82,-99.99,,,-99.99,,2013-04-16 13:00:00,
2013-04-16 07:42:00,15.0,11.0,-100.00,SSE,152,39.0,66.0,82,-99.99,,,-99.99,,2013-04-16 13:42:00,
2013-04-16 07:52:00,15.0,11.0,-100.00,SSE,152,39.0,66.0,82,-99.99,,,-99.99,,2013-04-16 13:52:00,
2013-04-16 08:00:00,15.0,10.0,-100.00,SSE,164,40.0,71.0,82,-99.99,,,-99.99,,2013-04-16 14:00:00,
2013-04-16 08:42:00,15.0,10.0,-100.00,SSE,164,40.0,71.0,82,-99.99,,,-99.99,,2013-04-16 14:42:00,
2013-04-16 08:52:00,15.0,10.0,-100.00,SSE,164,40.0,71.0,82,-99.99,,,-99.99,,2013-04-16 14:52:00,
2013-04-16 09:00:00,15.0,11.0,-100.00,SSE,155,40.0,65.0,81,-99.99,,,-99.99,,2013-04-16 15:00:00,
2013-04-16 09:43:00,15.0,11.0,-100.00,SSE,155,40.0,65.0,81,-99.99,,,-99.99,,2013-04-16 15:43:00,
2013-04-16 09:53:00,15.0,11.0,-100.00,SSE,155,40.0,65.0,81,-99.99,,,-99.99,,2013-04-16 15:53:00,
2013-04-16 10:00:00,16.0,12.0,-100.00,SSE,153,41.0,75.0,82,-99.99,,,-99.99,,2013-04-16 16:00:00,
2013-04-16 10:42:00,16.0,12.0,-100.00,SSE,153,41.0,75.0,82,-99.99,,,-99.99,,2013-04-16 16:42:00,
2013-04-16 10:52:00,16.0,12.0,-100.00,SSE,153,41.0,75.0,82,-99.99,,,-99.99,,2013-04-16 16:52:00,
2013-04-16 11:00:00,18.0,12.0,-100.00,SSE,152,39.0,65.0,78,-99.99,,,-99.99,,2013-04-16 17:00:00,
2013-04-16 11:43:00,18.0,12.0,-100.00,SSE,152,39.0,65.0,78,-99.99,,,-99.99,,2013-04-16 17:43:00,
2013-04-16 11:53:00,18.0,12.0,-100.00,SSE,152,39.0,65.0,78,-99.99,,,-99.99,,2013-04-16 17:53:00,
2013-04-16 12:00:00,19.0,14.0,-100.00,SSE,150,37.0,66.0,80,-99.99,,,-99.99,,2013-04-16 18:00:00,
2013-04-16 12:43:00,19.0,14.0,-100.00,SSE,150,37.0,66.0,80,-99.99,,,-99.99,,2013-04-16 18:43:00,
2013-04-16 12:52:00,19.0,14.0,-100.00,SSE,150,37.0,66.0,80,-99.99,,,-99.99,,2013-04-16 18:52:00,
2013-04-16 13:00:00,21.0,14.0,-100.00,SSE,148,36.0,75.0,73,-99.99,,,-99.99,,2013-04-16 19:00:00,
2013-04-16 13:42:00,21.0,14.0,-100.00,SSE,148,36.0,75.0,73,-99.99,,,-99.99,,2013-04-16 19:42:00,
2013-04-16 13:52:00,21.0,14.0,-100.00,SSE,148,36.0,75.0,73,-99.99,,,-99.99,,2013-04-16 19:52:00,
2013-04-16 14:00:00,24.0,14.0,-100.00,SSE,152,36.0,72.0,64,-99.99,,,-99.99,,2013-04-16 20:00:00,
2013-04-16 14:42:00,24.0,14.0,-100.00,SSE,152,36.0,72.0,64,-99.99,,,-99.99,,2013-04-16 20:42:00,
2013-04-16 14:52:00,24.0,14.0,-100.00,SSE,152,36.0,72.0,64,-99.99,,,-99.99,,2013-04-16 20:52:00,
2013-04-16 15:00:00,25.0,11.0,-100.00,SSE,150,39.0,87.0,53,-99.99,,,-99.99,,2013-04-16 21:00:00,
2013-04-16 15:43:00,25.0,11.0,-100.00,SSE,150,39.0,87.0,53,-99.99,,,-99.99,,2013-04-16 21:43:00,
2013-04-16 15:53:00,25.0,11.0,-100.00,SSE,150,39.0,87.0,53,-99.99,,,-99.99,,2013-04-16 21:53:00,
2013-04-16 16:00:00,27.0,9.0,-100.00,SSE,165,41.0,82.0,46,-99.99,,,-99.99,,2013-04-16 22:00:00,
2013-04-16 16:43:00,27.0,9.0,-100.00,SSE,165,41.0,82.0,46,-99.99,,,-99.99,,2013-04-16 22:43:00,
2013-04-16 16:52:00,27.0,9.0,-100.00,SSE,165,41.0,82.0,46,-99.99,,,-99.99,,2013-04-16 22:52:00,
2013-04-16 17:00:00,28.0,8.0,-100.00,South,178,42.0,86.0,43,-99.99,,,-99.99,,2013-04-16 23:00:00,
2013-04-16 17:43:00,28.0,8.0,-100.00,South,178,42.0,86.0,43,-99.99,,,-99.99,,2013-04-16 23:43:00,
2013-04-16 17:52:00,28.0,8.0,-100.00,South,178,42.0,86.0,43,-99.99,,,-99.99,,2013-04-16 23:52:00,
2013-04-16 18:00:00,27.0,5.0,-100.00,South,174,46.0,73.0,38,-99.99,,,-99.99,,2013-04-17 00:00:00,
2013-04-16 18:42:00,27.0,5.0,-100.00,South,174,46.0,73.0,38,-99.99,,,-99.99,,2013-04-17 00:42:00,
2013-04-16 18:52:00,27.0,5.0,-100.00,South,174,46.0,73.0,38,-99.99,,,-99.99,,2013-04-17 00:52:00,
2013-04-16 19:00:00,27.0,4.0,-100.00,South,174,44.0,76.0,36,-99.99,,,-99.99,,2013-04-17 01:00:00,
2013-04-16 19:42:00,27.0,4.0,-100.00,South,174,44.0,76.0,36,-99.99,,,-99.99,,2013-04-17 01:42:00,
2013-04-16 19:52:00,27.0,4.0,-100.00,South,174,44.0,76.0,36,-99.99,,,-99.99,,2013-04-17 01:52:00,
2013-04-16 20:00:00,25.0,5.0,-100.00,South,170,42.0,70.0,42,-99.99,,,-99.99,,2013-04-17 02:00:00,
2013-04-16 20:42:00,25.0,5.0,-100.00,South,170,42.0,70.0,42,-99.99,,,-99.99,,2013-04-17 02:42:00,
2013-04-16 20:52:00,25.0,5.0,-100.00,South,170,42.0,70.0,42,-99.99,,,-99.99,,2013-04-17 02:52:00,
2013-04-16 21:00:00,23.0,4.0,-100.00,South,184,38.0,70.0,44,-99.99,,,-99.99,,2013-04-17 03:00:00,
2013-04-16 21:42:00,23.0,4.0,-100.00,South,184,38.0,70.0,44,-99.99,,,-99.99,,2013-04-17 03:42:00,
2013-04-16 21:53:00,23.0,4.0,-100.00,South,184,38.0,70.0,44,-99.99,,,-99.99,,2013-04-17 03:53:00,
2013-04-16 22:00:00,21.0,8.0,-100.00,South,184,36.0,59.0,56,-99.99,,,-99.99,,2013-04-17 04:00:00,
2013-04-16 22:42:00,21.0,8.0,-100.00,South,184,36.0,59.0,56,-99.99,,,-99.99,,2013-04-17 04:42:00,
2013-04-16 22:52:00,21.0,8.0,-100.00,South,184,36.0,59.0,56,-99.99,,,-99.99,,2013-04-17 04:52:00,
2013-04-16 23:00:00,20.0,10.0,-100.00,South,180,33.0,52.0,66,-99.99,,,-99.99,,2013-04-17 05:00:00,
2013-04-16 23:43:00,20.0,10.0,-100.00,South,180,33.0,52.0,66,-99.99,,,-99.99,,2013-04-17 05:43:00,
2013-04-16 23:52:00,20.0,10.0,-100.00,South,180,33.0,52.0,66,-99.99,,,-99.99,,2013-04-17 05:52:00,